Location: Roland
(31.1349°N, 85.4372°W)
Time: 04:34:57
(UTC+00:00)

Courier 1B - Pass Details

Date: 22 April 2021
Orbit: 962 x 1209 km, 28.3° (Epoch: 07 May)

Event Time Altitude Azimuth Distance (km) Brightness Sun altitude
Rises 15:09:42 0° 217° (SW) 3,901 10.5 50.6°
Reaches altitude 10° 15:13:09 10° 203° (SSW) 2,899 10.1 51.3°
Maximum altitude 15:18:26 23° 154° (SSE) 2,056 10.0 52.4°
Drops below altitude 10° 15:23:30 10° 105° (ESE) 2,774 10.7 53.4°
Sets 15:26:42 0° 91° (E) 3,692 11.0 54.0°
